TimeCDT,TemperatureF,Dew PointF,Humidity,Sea Level PressureIn,VisibilityMPH,Wind Direction,Wind SpeedMPH,Gust SpeedMPH,PrecipitationIn,Events,Conditions,WindDirDegrees,DateUTC
12:42 AM,37.4,33.8,87,29.74,10.0,WNW,5.8,-,N/A,,Mostly Cloudy,290,2012-10-10 05:42:00
12:54 AM,37.0,33.1,86,29.77,10.0,WNW,8.1,-,N/A,,Overcast,290,2012-10-10 05:54:00
1:54 AM,37.0,32.0,82,29.79,10.0,WNW,8.1,-,N/A,,Overcast,290,2012-10-10 06:54:00
2:24 AM,35.6,30.2,81,29.77,10.0,WNW,13.8,19.6,N/A,,Mostly Cloudy,290,2012-10-10 07:24:00
2:54 AM,35.1,30.9,85,29.80,10.0,WNW,10.4,-,N/A,,Scattered Clouds,300,2012-10-10 07:54:00
3:40 AM,33.8,30.2,87,29.77,10.0,WNW,8.1,-,N/A,,Mostly Cloudy,290,2012-10-10 08:40:00
3:54 AM,34.0,30.0,85,29.81,10.0,WNW,9.2,-,N/A,,Mostly Cloudy,290,2012-10-10 08:54:00
4:07 AM,33.8,30.2,87,29.77,10.0,West,9.2,-,N/A,,Scattered Clouds,280,2012-10-10 09:07:00
4:54 AM,34.0,28.9,82,29.83,10.0,WNW,6.9,-,N/A,,Mostly Cloudy,290,2012-10-10 09:54:00
5:41 AM,33.8,30.2,87,29.80,10.0,West,8.1,-,N/A,,Overcast,280,2012-10-10 10:41:00
5:54 AM,34.0,30.0,85,29.84,10.0,WNW,6.9,-,N/A,,Overcast,290,2012-10-10 10:54:00
6:54 AM,33.1,28.9,85,29.86,10.0,WNW,6.9,-,N/A,,Partly Cloudy,290,2012-10-10 11:54:00
7:54 AM,33.1,28.9,85,29.88,10.0,WNW,10.4,17.3,N/A,,Scattered Clouds,300,2012-10-10 12:54:00
8:25 AM,33.8,28.4,81,29.85,10.0,WNW,11.5,17.3,N/A,,Mostly Cloudy,300,2012-10-10 13:25:00
8:54 AM,35.1,28.0,76,29.90,10.0,WNW,12.7,20.7,N/A,,Mostly Cloudy,290,2012-10-10 13:54:00
9:54 AM,37.0,28.0,70,29.91,10.0,West,12.7,-,N/A,,Overcast,280,2012-10-10 14:54:00
10:54 AM,37.9,28.0,68,29.93,10.0,WNW,12.7,21.9,N/A,,Mostly Cloudy,290,2012-10-10 15:54:00
11:10 AM,37.4,26.6,65,29.90,10.0,NW,16.1,21.9,N/A,,Overcast,310,2012-10-10 16:10:00
11:54 AM,37.0,30.0,76,29.96,7.0,NW,10.4,-,0.00,Snow,Light Snow,310,2012-10-10 16:54:00
12:54 PM,39.0,26.1,60,29.97,10.0,WNW,19.6,29.9,0.00,,Overcast,300,2012-10-10 17:54:00
1:54 PM,39.9,21.9,49,29.96,10.0,WNW,15.0,24.2,N/A,,Mostly Cloudy,300,2012-10-10 18:54:00
2:54 PM,39.9,21.0,47,29.99,10.0,WNW,10.4,-,N/A,,Overcast,290,2012-10-10 19:54:00
3:54 PM,42.1,21.0,43,29.99,10.0,NW,11.5,21.9,N/A,,Mostly Cloudy,310,2012-10-10 20:54:00
4:54 PM,41.0,19.0,41,30.01,10.0,WNW,11.5,-,N/A,,Overcast,290,2012-10-10 21:54:00
5:54 PM,39.9,21.0,47,30.02,10.0,WNW,8.1,-,N/A,,Overcast,300,2012-10-10 22:54:00
6:54 PM,33.1,21.9,64,30.03,10.0,Calm,Calm,-,N/A,,Partly Cloudy,0,2012-10-10 23:54:00
7:54 PM,28.9,21.9,75,30.04,10.0,Calm,Calm,-,N/A,,Clear,0,2012-10-11 00:54:00
8:54 PM,28.9,24.1,82,30.05,10.0,Calm,Calm,-,N/A,,Clear,0,2012-10-11 01:54:00
9:54 PM,26.1,21.0,81,30.04,10.0,Calm,Calm,-,N/A,,Clear,0,2012-10-11 02:54:00
10:54 PM,28.0,23.0,81,30.03,10.0,Calm,Calm,-,N/A,,Mostly Cloudy,0,2012-10-11 03:54:00
11:54 PM,30.0,24.1,79,30.02,10.0,Calm,Calm,-,N/A,,Overcast,0,2012-10-11 04:54:00